When you browse on this site, cookies collect data to enhance your experience and personalize the content and advertising you see.
Visit our Privacy Policy to learn more. By continuing to use the site, you agree to this use of cookies and data.
  • In Portugal
  • List of Countries
  • For 7 days
  • Water Temperature
  • Satellite Maps
  • Weather Map
  • Weather Widgets
  • user-avatar
    Login

    Hourly Weather Cochabamba

    Today, 18 April, Thursday

    Time Temperature Precipitation Wind Pressure Humidity
    00:00 +16°C° 0 mm 1 mps 555 mmHg 76%
    01:00 +16°C° 0 mm 1 mps 555 mmHg 77%
    02:00 +15°C° 0 mm 2 mps 554 mmHg 76%
    03:00 +15°C° 0 mm 2 mps 554 mmHg 77%
    04:00 +15°C° 0 mm 2 mps 554 mmHg 78%
    05:00 +14°C° 0 mm 2 mps 554 mmHg 79%
    06:00 +16°C° 0 mm 2 mps 555 mmHg 74%
    07:00 +17°C° 0 mm 2 mps 555 mmHg 69%
    08:00 +19°C° 0 mm 1 mps 557 mmHg 59%
    09:00 +21°C° 0 mm 1 mps 557 mmHg 53%
    10:00 +22°C° 0 mm 1 mps 558 mmHg 47%
    11:00 +24°C° 0 mm 1 mps 558 mmHg 41%
    12:00 +25°C° 0.1 mm 1 mps 558 mmHg 42%
    13:00 +25°C° 0.1 mm 2 mps 557 mmHg 42%
    14:00 +26°C° 0.1 mm 2 mps 557 mmHg 42%
    15:00 +25°C° 0.2 mm 2 mps 557 mmHg 45%
    16:00 +24°C° 0.2 mm 2 mps 556 mmHg 48%
    17:00 +24°C° 0.2 mm 3 mps 556 mmHg 51%
    18:00 +21°C° 0.2 mm 3 mps 555 mmHg 57%
    19:00 +20°C° 0.2 mm 3 mps 555 mmHg 63%
    20:00 +19°C° 0.2 mm 3 mps 555 mmHg 69%
    21:00 +18°C° 0 mm 2 mps 555 mmHg 71%
    22:00 +18°C° 0 mm 2 mps 556 mmHg 73%
    23:00 +18°C° 0 mm 1 mps 556 mmHg 74%

    Tomorrow, 19 April, Friday

    Time Temperature Precipitation Wind Pressure Humidity
    00:00 +18°C° 0 mm 1 mps 556 mmHg 74%
    01:00 +18°C° 0 mm 1 mps 556 mmHg 73%
    02:00 +16°C° 0 mm 1 mps 555 mmHg 73%
    03:00 +16°C° 0 mm 1 mps 555 mmHg 73%
    04:00 +15°C° 0 mm 2 mps 554 mmHg 72%
    05:00 +15°C° 0 mm 2 mps 554 mmHg 72%
    06:00 +16°C° 0 mm 2 mps 555 mmHg 68%
    07:00 +17°C° 0 mm 2 mps 556 mmHg 63%
    08:00 +18°C° 0 mm 2 mps 557 mmHg 59%
    09:00 +20°C° 0.1 mm 2 mps 557 mmHg 53%
    10:00 +21°C° 0.1 mm 2 mps 558 mmHg 48%
    11:00 +24°C° 0.1 mm 2 mps 559 mmHg 42%
    12:00 +25°C° 0.2 mm 2 mps 558 mmHg 42%
    13:00 +25°C° 0.2 mm 2 mps 558 mmHg 42%
    14:00 +26°C° 0.2 mm 2 mps 557 mmHg 42%
    15:00 +25°C° 0.4 mm 2 mps 557 mmHg 43%
    16:00 +25°C° 0.4 mm 2 mps 556 mmHg 44%
    17:00 +24°C° 0.4 mm 2 mps 556 mmHg 46%
    18:00 +22°C° 0.7 mm 3 mps 555 mmHg 53%
    19:00 +20°C° 0.7 mm 3 mps 555 mmHg 60%
    20:00 +18°C° 0.7 mm 3 mps 555 mmHg 67%
    21:00 +18°C° 0.2 mm 2 mps 555 mmHg 69%
    22:00 +17°C° 0.2 mm 2 mps 555 mmHg 72%
    23:00 +18°C° 0.2 mm 1 mps 556 mmHg 75%

    Day after tomorrow, 20 April, Saturday

    Time Temperature Precipitation Wind Pressure Humidity
    00:00 +18°C° 0.2 mm 1 mps 555 mmHg 75%
    01:00 +16°C° 0.2 mm 1 mps 555 mmHg 75%
    02:00 +16°C° 0.2 mm 1 mps 555 mmHg 75%
    03:00 +16°C° 0 mm 1 mps 555 mmHg 75%
    04:00 +16°C° 0 mm 2 mps 555 mmHg 75%
    05:00 +15°C° 0 mm 2 mps 554 mmHg 76%
    06:00 +16°C° 0.1 mm 2 mps 555 mmHg 72%
    07:00 +17°C° 0.1 mm 2 mps 556 mmHg 68%
    08:00 +18°C° 0.1 mm 2 mps 557 mmHg 64%
    09:00 +20°C° 0.1 mm 2 mps 557 mmHg 58%
    10:00 +21°C° 0.1 mm 2 mps 558 mmHg 52%
    11:00 +24°C° 0.1 mm 2 mps 559 mmHg 46%
    12:00 +24°C° 0.3 mm 2 mps 558 mmHg 46%
    13:00 +25°C° 0.3 mm 3 mps 557 mmHg 46%
    14:00 +25°C° 0.3 mm 3 mps 557 mmHg 45%
    15:00 +25°C° 0.3 mm 3 mps 556 mmHg 47%
    16:00 +25°C° 0.3 mm 3 mps 556 mmHg 48%
    17:00 +23°C° 0.3 mm 4 mps 555 mmHg 50%
    18:00 +22°C° 0.2 mm 3 mps 555 mmHg 57%
    19:00 +20°C° 0.2 mm 3 mps 554 mmHg 65%
    20:00 +18°C° 0.2 mm 3 mps 554 mmHg 73%
    21:00 +18°C° 0.1 mm 3 mps 555 mmHg 74%
    22:00 +18°C° 0.1 mm 2 mps 555 mmHg 75%
    23:00 +17°C° 0.1 mm 2 mps 555 mmHg 77%

    21 April, Sunday

    Time Temperature Precipitation Wind Pressure Humidity
    00:00 +17°C° 0.1 mm 2 mps 555 mmHg 77%
    01:00 +17°C° 0.1 mm 2 mps 555 mmHg 77%
    02:00 +16°C° 0.1 mm 2 mps 554 mmHg 78%
    03:00 +16°C° 0.1 mm 2 mps 554 mmHg 77%
    04:00 +16°C° 0.1 mm 2 mps 553 mmHg 76%
    05:00 +15°C° 0.1 mm 2 mps 553 mmHg 75%
    06:00 +16°C° 0 mm 2 mps 554 mmHg 68%
    07:00 +17°C° 0 mm 2 mps 555 mmHg 61%
    08:00 +18°C° 0 mm 2 mps 556 mmHg 54%
    09:00 +20°C° 0.2 mm 2 mps 556 mmHg 49%
    10:00 +23°C° 0.2 mm 2 mps 557 mmHg 44%
    11:00 +25°C° 0.2 mm 2 mps 558 mmHg 38%
    12:00 +25°C° 0.8 mm 2 mps 557 mmHg 38%
    13:00 +26°C° 0.8 mm 3 mps 557 mmHg 38%
    14:00 +27°C° 0.8 mm 3 mps 556 mmHg 38%
    15:00 +26°C° 1.2 mm 3 mps 556 mmHg 41%
    16:00 +25°C° 1.2 mm 3 mps 555 mmHg 43%
    17:00 +25°C° 1.2 mm 3 mps 555 mmHg 46%
    18:00 +23°C° 0.9 mm 2 mps 554 mmHg 53%
    19:00 +20°C° 0.9 mm 2 mps 554 mmHg 61%
    20:00 +18°C° 0.9 mm 2 mps 554 mmHg 68%
    21:00 +18°C° 0.3 mm 2 mps 554 mmHg 71%
    22:00 +18°C° 0.3 mm 1 mps 554 mmHg 74%
    23:00 +18°C° 0.3 mm 1 mps 554 mmHg 76%

    22 April, Monday

    Time Temperature Precipitation Wind Pressure Humidity
    00:00 +16°C° 0.6 mm 1 mps 554 mmHg 76%
    01:00 +16°C° 0.6 mm 1 mps 553 mmHg 76%
    02:00 +15°C° 0.6 mm 1 mps 553 mmHg 76%
    03:00 +15°C° 0.2 mm 1 mps 553 mmHg 78%
    04:00 +14°C° 0.2 mm 1 mps 552 mmHg 80%
    05:00 +13°C° 0.2 mm 1 mps 552 mmHg 82%
    06:00 +14°C° 0 mm 1 mps 553 mmHg 78%
    07:00 +15°C° 0 mm 1 mps 554 mmHg 75%
    08:00 +18°C° 0 mm 1 mps 555 mmHg 71%
    09:00 +18°C° 0.5 mm 1 mps 556 mmHg 68%
    10:00 +18°C° 0.5 mm 2 mps 557 mmHg 65%
    11:00 +19°C° 0.5 mm 2 mps 557 mmHg 62%
    12:00 +19°C° 1.2 mm 2 mps 557 mmHg 61%
    13:00 +20°C° 1.2 mm 3 mps 556 mmHg 61%
    14:00 +20°C° 1.2 mm 3 mps 556 mmHg 60%
    15:00 +20°C° 0.1 mm 3 mps 555 mmHg 60%
    16:00 +20°C° 0.1 mm 3 mps 555 mmHg 60%
    17:00 +20°C° 0.1 mm 3 mps 555 mmHg 60%
    18:00 +19°C° 0 mm 2 mps 555 mmHg 66%
    19:00 +17°C° 0 mm 2 mps 555 mmHg 72%
    20:00 +16°C° 0 mm 1 mps 555 mmHg 77%
    21:00 +16°C° 0.1 mm 1 mps 555 mmHg 79%
    22:00 +16°C° 0.1 mm 1 mps 555 mmHg 81%
    23:00 +15°C° 0.1 mm 1 mps 555 mmHg 83%

    23 April, Tuesday

    Time Temperature Precipitation Wind Pressure Humidity
    00:00 +15°C° 0.1 mm 1 mps 555 mmHg 83%
    01:00 +15°C° 0.1 mm 1 mps 555 mmHg 83%
    02:00 +14°C° 0.1 mm 0 mps 555 mmHg 84%
    03:00 +13°C° 0.1 mm 0 mps 554 mmHg 84%
    04:00 +13°C° 0.1 mm 0 mps 554 mmHg 84%
    05:00 +13°C° 0.1 mm 0 mps 554 mmHg 85%
    06:00 +13°C° 0.1 mm 0 mps 555 mmHg 81%
    07:00 +14°C° 0.1 mm 0 mps 556 mmHg 78%
    08:00 +16°C° 0.1 mm 1 mps 556 mmHg 74%
    09:00 +18°C° 0.2 mm 1 mps 557 mmHg 70%
    10:00 +19°C° 0.2 mm 1 mps 557 mmHg 66%
    11:00 +20°C° 0.2 mm 1 mps 558 mmHg 62%
    12:00 +19°C° 0.7 mm 2 mps 557 mmHg 61%
    13:00 +20°C° 0.7 mm 2 mps 557 mmHg 59%
    14:00 +20°C° 0.7 mm 3 mps 556 mmHg 58%
    15:00 +20°C° 0.6 mm 2 mps 556 mmHg 60%
    16:00 +19°C° 0.6 mm 2 mps 555 mmHg 62%
    17:00 +19°C° 0.6 mm 2 mps 555 mmHg 65%
    18:00 +18°C° 0.8 mm 2 mps 555 mmHg 68%
    19:00 +18°C° 0.8 mm 2 mps 555 mmHg 71%
    20:00 +18°C° 0.8 mm 1 mps 556 mmHg 74%
    21:00 +18°C° 0.6 mm 1 mps 556 mmHg 75%
    22:00 +16°C° 0.6 mm 1 mps 556 mmHg 76%
    23:00 +16°C° 0.6 mm 1 mps 556 mmHg 78%
    Show more